Wind_Speed
11 11 11 11 11 11 11 11 11 11 11 10 10 10 10 11 10 10 10 10 10 10 10 9 10 10 10 10 10 10 11 11 11 12 12 11 11 11 11 10 9 9 10
11 11 11 11 11 10 10 11 11 11 11 11 11 11 11 11 10 10 10 11 11 10 10 10 10 10 10 10 10 10 10 11 11 11 11 11 11 11 11 9 9 9 9
11 11 11 11 11 11 10 11 11 11 11 11 11 11 11 11 11 10 10 11 11 10 10 10 10 11 11 11 11 11 10 10 11 11 11 11 11 11 11 10 10 10 10
11 12 11 11 11 11 11 11 12 12 11 11 11 11 12 12 11 11 10 11 11 10 10 10 10 11 11 12 12 12 11 11 11 11 11 12 11 11 10 10 11 10 10
13 12 12 12 12 12 12 12 12 12 12 12 12 12 12 12 12 12 12 11 11 11 11 11 11 11 12 12 12 11 11 11 12 11 11 12 12 11 11 11 11 11 11
14 14 14 13 13 13 13 13 13 13 13 14 13 13 13 13 13 13 13 13 13 12 11 11 11 12 11 11 11 11 11 11 11 11 12 12 12 12 12 12 12 12 11
15 15 14 14 14 14 14 14 14 14 14 14 14 14 14 14 14 14 14 13 13 14 13 12 12 12 12 11 11 11 11 11 11 12 11 12 12 12 12 12 12 13 13
15 15 15 15 15 15 14 15 15 15 15 15 15 14 14 14 14 14 14 14 14 14 14 13 13 12 12 12 11 12 12 12 12 12 12 12 13 13 13 13 13 14 14
16 16 16 16 16 16 15 16 16 16 16 16 16 15 15 14 14 14 15 15 14 14 14 14 14 13 13 13 13 13 13 13 13 13 14 14 14 14 14 14 14 15 15
17 17 17 17 16 17 16 17 17 17 16 17 16 16 16 16 15 15 15 15 15 15 15 15 15 14 14 14 14 14 14 14 14 15 15 15 15 15 15 15 15 16 16
19 19 19 18 18 18 18 18 18 18 18 18 17 18 18 17 17 16 16 16 16 17 17 17 17 16 15 15 15 15 16 16 16 16 16 16 16 16 16 17 16 16 16
20 21 20 20 20 20 20 20 20 19 19 19 19 19 19 19 18 18 18 18 18 19 19 19 18 17 17 16 17 17 17 17 17 18 17 17 17 17 17 18 17 17 16
21 21 21 21 21 21 21 21 21 21 21 21 21 21 21 21 21 20 20 20 21 21 21 20 20 20 20 19 18 18 18 18 18 18 18 18 18 18 18 18 18 18 17
23 22 22 22 22 22 23 23 23 23 23 23 23 23 23 23 23 22 22 22 22 22 22 22 21 21 21 21 21 20 19 19 19 19 20 19 19 19 20 20 20 20 19
24 23 23 23 23 23 24 25 24 24 24 24 24 24 25 25 25 25 25 25 24 24 24 24 23 22 22 22 22 22 21 20 20 20 20 20 20 20 21 21 22 22 21
26 25 25 25 25 25 25 25 25 26 26 26 26 26 26 27 27 27 27 27 27 26 26 26 25 24 23 23 23 23 22 22 21 21 22 22 22 22 22 22 22 23 22
27 27 26 26 27 26 26 26 27 27 27 27 28 28 28 28 28 28 28 28 28 27 27 26 26 25 25 25 24 24 24 24 23 23 23 23 23 23 23 24 24 24 24
29 29 28 27 27 28 28 28 28 28 28 28 29 29 29 29 28 29 29 29 29 28 28 27 27 27 26 26 25 25 24 25 25 24 24 24 24 25 25 25 25 26 26
30 30 30 29 29 29 29 29 29 29 30 30 31 30 30 30 29 30 30 30 30 30 29 29 29 28 27 27 26 26 26 25 25 25 25 25 25 25 25 26 27 27 27
31 31 30 30 31 31 31 30 30 31 31 32 32 32 31 31 30 31 30 30 31 31 31 30 29 29 28 28 28 27 27 27 26 26 27 26 26 25 25 26 27 28 28
32 32 32 32 32 32 32 32 32 32 32 33 33 33 32 32 32 32 32 31 32 32 32 31 31 30 30 29 29 28 29 28 27 27 27 27 27 27 27 27 28 28 28
34 34 34 34 34 34 34 34 34 34 33 34 34 34 34 33 33 33 33 33 33 32 32 32 32 31 31 31 31 30 30 29 29 29 29 29 29 29 29 29 29 28 28
34 35 35 36 35 35 35 35 35 35 35 35 35 35 34 34 34 34 33 33 33 33 33 32 32 32 32 31 32 31 31 30 30 31 31 30 30 30 30 30 29 28 28
35 36 37 37 37 37 37 36 36 37 36 36 36 36 35 34 35 34 34 34 33 33 34 34 34 33 33 33 33 33 33 32 31 31 32 31 31 31 30 30 30 30 29
36 37 37 37 38 38 38 38 37 37 37 36 36 37 37 36 35 35 34 34 34 34 34 34 35 35 34 34 34 34 33 33 32 32 32 32 31 31 31 31 31 30 30
37 37 37 37 37 38 38 38 37 37 37 37 37 37 37 36 35 35 35 34 34 35 35 35 35 35 35 36 36 35 35 34 34 33 33 32 32 32 32 31 31 31 31
Wind_Direction
310 311 313 313 313 311 308 305 306 308 306 303 303 304 304 303 302 302 302 302 302 301 300 299 292 291 288 283 277 273 271 269 268 270 274 273 271 269 264 261 259 259 261
311 311 311 311 310 310 306 304 302 306 306 305 305 305 303 303 301 303 302 300 300 300 298 298 296 293 290 286 280 276 272 268 267 267 270 269 268 266 259 256 254 256 254
309 314 313 311 310 311 308 306 304 306 306 303 305 305 303 302 303 300 302 301 299 298 298 298 297 294 291 289 283 279 273 270 268 266 266 267 267 264 261 253 253 255 256
306 310 310 312 312 310 308 308 308 308 306 303 305 306 304 301 301 299 299 298 297 299 300 299 297 297 293 290 285 278 272 272 272 265 263 265 264 263 261 257 253 255 256
302 305 307 307 307 308 308 305 306 305 305 304 304 305 304 300 300 301 299 298 298 298 298 298 299 297 297 295 289 280 274 273 273 268 267 266 264 261 260 258 256 254 256
300 302 302 303 306 308 306 306 304 303 303 304 303 304 306 303 301 301 301 299 297 295 295 295 296 293 294 294 288 279 275 275 272 269 268 266 264 262 261 258 259 257 258
297 298 299 300 302 305 304 302 302 300 301 301 301 302 303 302 299 298 298 299 300 300 298 298 297 294 292 291 286 279 276 275 273 270 271 270 268 265 264 262 259 259 261
295 296 297 296 298 300 300 299 300 300 299 298 300 300 300 300 298 296 296 297 296 297 297 296 296 295 295 292 289 285 282 279 277 275 274 272 269 266 264 263 261 261 263
292 292 292 293 294 296 295 295 297 298 300 300 300 299 299 299 297 295 295 295 294 294 293 291 290 290 290 290 287 283 281 280 277 275 273 272 269 265 263 262 262 262 263
288 290 290 290 289 290 291 293 294 295 298 299 298 298 298 297 295 293 293 293 293 293 292 291 288 287 285 287 286 284 280 280 276 273 272 270 267 263 262 262 262 263 263
288 287 290 288 288 288 288 290 291 293 294 295 295 295 295 294 293 292 291 292 292 292 292 291 290 287 283 280 281 283 283 281 277 275 274 270 266 263 262 262 262 263 263
289 286 287 287 287 287 287 288 289 290 290 292 293 292 291 291 291 290 289 289 290 291 290 290 290 287 284 282 281 278 279 279 278 276 275 270 267 266 263 262 261 262 261
288 286 285 287 286 286 288 289 288 288 288 290 292 290 288 288 289 289 288 288 288 289 289 288 287 286 284 282 282 277 274 275 277 276 274 271 267 265 263 262 260 260 260
287 285 283 285 285 286 286 286 288 288 288 288 289 289 287 285 285 286 287 287 287 287 287 286 286 285 283 281 281 279 277 275 273 274 273 270 268 266 264 262 261 259 260
286 284 282 283 285 286 285 285 287 287 288 288 287 287 286 285 284 284 284 285 284 284 283 284 284 283 282 281 279 277 278 279 275 271 270 269 269 266 264 263 262 258 260
284 284 283 282 284 285 285 284 286 286 286 286 287 286 285 284 284 284 284 284 284 283 281 282 282 282 281 281 278 276 276 277 277 274 271 269 269 269 267 264 262 260 260
281 282 282 282 282 282 283 283 285 285 285 287 287 286 284 284 284 283 283 283 282 281 280 279 280 281 281 280 279 277 276 275 275 274 273 272 269 268 267 264 262 260 259
281 280 280 280 280 281 282 283 284 285 286 286 287 286 285 285 283 282 282 281 281 280 279 279 279 280 279 279 278 276 276 276 275 273 273 272 271 269 267 266 264 260 258
282 281 279 279 278 279 281 282 282 284 285 285 286 286 285 285 283 283 281 280 279 278 279 279 278 279 278 276 275 275 274 274 275 273 273 272 271 270 268 265 263 261 258
281 280 280 279 279 280 280 281 281 283 284 284 285 285 285 284 283 283 282 281 279 278 278 278 278 278 277 275 275 274 272 272 273 273 273 271 269 268 268 267 263 261 258
281 280 280 280 280 281 281 282 281 281 283 283 284 284 284 284 283 282 281 281 279 278 276 276 277 277 276 274 274 273 272 271 272 272 271 270 269 268 268 267 265 264 261
281 281 280 280 280 280 281 282 282 282 282 282 283 283 283 283 282 281 280 280 279 278 276 275 275 275 275 274 273 273 272 271 271 271 270 270 270 269 268 267 265 264 262
282 281 280 280 279 280 280 281 280 281 281 282 282 282 282 282 281 280 280 279 278 277 276 275 274 274 274 273 273 272 272 271 271 269 269 268 268 268 268 267 265 264 262
284 282 281 279 278 279 280 280 280 279 280 282 282 281 281 281 281 280 279 278 277 277 276 274 273 273 273 272 272 271 270 271 271 270 269 269 267 267 267 267 265 263 262
285 283 281 280 279 279 279 279 279 280 280 280 281 281 281 280 279 278 279 278 276 276 276 274 273 272 272 272 271 271 270 269 269 270 270 269 268 267 266 266 264 262 260
286 284 283 281 280 279 278 279 279 279 279 279 279 280 281 280 278 277 278 277 276 276 275 275 274 273 272 271 271 270 269 268 268 268 269 269 268 267 266 265 264 262 260
Height
5850 5849 5848 5847 5846 5845 5844 5844 5843 5842 5841 5841 5840 5839 5838 5837 5836 5835 5835 5834 5833 5832 5831 5830 5829 5830 5829 5830 5830 5830 5831 5832 5832 5833 5833 5834 5834 5835 5835 5836 5836 5837 5838
5848 5847 5846 5845 5844 5843 5843 5842 5841 5841 5840 5839 5838 5837 5836 5835 5835 5833 5833 5832 5831 5830 5829 5828 5828 5828 5827 5827 5827 5828 5828 5829 5829 5830 5831 5831 5832 5832 5833 5833 5834 5835 5836
5846 5845 5844 5843 5842 5841 5841 5840 5839 5839 5838 5837 5836 5835 5834 5833 5833 5832 5830 5829 5829 5828 5827 5826 5826 5825 5825 5824 5823 5824 5825 5826 5826 5827 5828 5828 5829 5829 5830 5831 5832 5832 5833
5844 5843 5842 5841 5840 5839 5839 5838 5837 5837 5836 5835 5834 5833 5832 5831 5830 5829 5828 5827 5826 5826 5825 5824 5824 5823 5822 5820 5819 5819 5821 5822 5823 5824 5825 5825 5826 5826 5827 5828 5829 5830 5830
5842 5841 5840 5839 5838 5837 5837 5836 5835 5834 5834 5833 5832 5830 5829 5828 5827 5827 5826 5825 5824 5823 5823 5822 5821 5820 5819 5817 5815 5816 5817 5819 5820 5821 5822 5822 5823 5824 5824 5825 5826 5827 5828
5839 5838 5838 5837 5836 5835 5835 5834 5833 5832 5831 5830 5829 5828 5827 5826 5825 5824 5823 5822 5821 5820 5820 5819 5818 5817 5816 5815 5814 5814 5815 5816 5817 5818 5819 5819 5820 5821 5821 5822 5823 5824 5825
5837 5836 5835 5834 5834 5833 5832 5831 5830 5829 5828 5827 5827 5825 5824 5823 5822 5821 5820 5819 5819 5818 5817 5817 5816 5815 5814 5814 5813 5813 5814 5814 5814 5815 5816 5816 5817 5817 5818 5819 5820 5821 5821
5833 5833 5832 5831 5831 5830 5829 5828 5827 5826 5825 5824 5824 5823 5822 5821 5819 5818 5817 5816 5816 5815 5814 5813 5813 5812 5812 5811 5811 5811 5811 5811 5812 5812 5812 5813 5813 5814 5815 5815 5816 5817 5818
5830 5829 5828 5828 5827 5827 5826 5825 5824 5823 5822 5821 5820 5820 5818 5817 5816 5816 5814 5813 5812 5812 5811 5810 5810 5809 5809 5809 5808 5808 5808 5808 5808 5808 5809 5809 5809 5810 5811 5811 5812 5813 5814
5826 5825 5825 5824 5824 5823 5822 5821 5821 5820 5819 5818 5817 5816 5815 5814 5813 5812 5811 5810 5809 5808 5807 5807 5806 5805 5805 5805 5804 5804 5804 5804 5804 5804 5804 5805 5805 5806 5806 5807 5808 5808 5809
5821 5821 5820 5820 5819 5819 5818 5817 5816 5815 5814 5814 5813 5812 5811 5810 5809 5808 5807 5806 5805 5804 5803 5802 5802 5801 5800 5800 5800 5800 5800 5800 5799 5800 5800 5800 5800 5801 5801 5802 5803 5804 5805
5817 5816 5816 5815 5815 5814 5813 5813 5812 5811 5810 5809 5808 5807 5806 5805 5804 5803 5803 5802 5801 5800 5799 5798 5797 5796 5796 5795 5795 5795 5795 5794 5794 5794 5794 5794 5795 5795 5796 5797 5798 5799 5800
5812 5811 5811 5810 5809 5809 5808 5807 5807 5806 5805 5804 5803 5802 5801 5800 5799 5798 5798 5797 5796 5795 5794 5793 5792 5791 5791 5790 5790 5789 5789 5789 5789 5789 5789 5789 5789 5790 5791 5791 5792 5793 5795
5806 5805 5805 5804 5804 5803 5802 5802 5801 5800 5799 5798 5797 5796 5795 5794 5794 5793 5792 5791 5790 5789 5788 5787 5786 5786 5785 5785 5784 5784 5783 5783 5783 5783 5783 5783 5783 5784 5785 5785 5786 5788 5789
5800 5799 5799 5798 5797 5797 5796 5795 5794 5794 5793 5792 5791 5790 5789 5788 5787 5786 5786 5785 5784 5783 5783 5781 5780 5780 5779 5778 5778 5777 5777 5777 5777 5777 5777 5777 5777 5778 5778 5779 5780 5781 5782
5793 5793 5792 5792 5791 5790 5789 5788 5788 5787 5786 5785 5784 5783 5782 5781 5780 5779 5778 5777 5776 5776 5775 5774 5774 5773 5772 5771 5771 5771 5770 5770 5770 5770 5770 5770 5771 5771 5772 5773 5773 5774 5776
5786 5785 5785 5784 5784 5783 5782 5781 5780 5779 5779 5778 5776 5775 5774 5773 5772 5771 5770 5769 5768 5768 5767 5767 5766 5765 5765 5764 5764 5763 5763 5763 5763 5763 5763 5763 5764 5764 5764 5765 5766 5767 5769
5778 5777 5777 5776 5776 5775 5774 5773 5772 5772 5771 5770 5768 5767 5766 5765 5764 5763 5762 5761 5760 5760 5759 5759 5758 5758 5757 5757 5756 5756 5755 5755 5755 5755 5756 5756 5756 5756 5757 5757 5759 5760 5761
5770 5769 5769 5768 5767 5767 5766 5765 5764 5763 5762 5761 5760 5758 5757 5756 5755 5754 5753 5752 5752 5751 5751 5751 5750 5750 5749 5749 5749 5749 5748 5748 5747 5747 5748 5748 5748 5748 5749 5750 5750 5751 5753
5761 5761 5760 5759 5759 5758 5757 5756 5755 5754 5753 5752 5751 5749 5748 5747 5746 5745 5744 5743 5742 5742 5742 5741 5741 5741 5740 5740 5740 5740 5740 5740 5740 5740 5740 5740 5740 5740 5741 5742 5742 5743 5745
5752 5751 5751 5750 5749 5749 5748 5746 5746 5745 5744 5742 5741 5740 5739 5737 5736 5735 5734 5733 5733 5732 5732 5732 5732 5732 5731 5731 5732 5732 5732 5732 5731 5731 5731 5732 5732 5732 5733 5733 5734 5735 5736
5743 5742 5741 5740 5739 5739 5738 5737 5736 5735 5734 5733 5731 5730 5729 5727 5726 5725 5724 5723 5723 5722 5722 5722 5722 5722 5722 5722 5722 5722 5722 5723 5723 5723 5723 5723 5723 5724 5724 5725 5725 5726 5727
5732 5731 5731 5730 5729 5728 5727 5726 5725 5724 5723 5722 5721 5720 5718 5717 5716 5715 5714 5713 5712 5711 5711 5712 5712 5712 5712 5712 5712 5713 5712 5713 5713 5713 5713 5714 5714 5714 5715 5715 5716 5717 5718
5722 5721 5720 5719 5718 5717 5716 5715 5714 5713 5712 5711 5710 5709 5708 5706 5705 5704 5703 5703 5702 5701 5701 5701 5701 5701 5701 5701 5701 5702 5702 5702 5703 5702 5703 5704 5704 5705 5705 5705 5706 5707 5708
5711 5710 5708 5707 5707 5706 5705 5704 5703 5702 5701 5700 5699 5698 5696 5695 5694 5693 5693 5692 5692 5691 5690 5690 5690 5690 5690 5690 5690 5690 5691 5692 5692 5692 5692 5693 5694 5694 5695 5696 5696 5697 5698
5700 5699 5697 5696 5695 5694 5693 5692 5691 5691 5690 5689 5688 5687 5685 5684 5683 5682 5681 5681 5681 5680 5679 5679 5679 5679 5679 5679 5679 5679 5679 5680 5681 5682 5682 5682 5683 5683 5685 5686 5686 5687 5688